Flag for Canada Weather past 2 weeks in Kawartha Lakes, Ontario, Canada

Now
64 °F

Mild.


Feels Like: 64 °F
Forecast: 51 / 74 °F
Wind: 7 mph from Northwest

Location: Lagoon City

Current Time: Jul 24, 2014 at 9:56:53 PM

Latest Report: Jul 24, 2014 at 9:00 PM


Visibility: N/A

Pressure: 29.99 "Hg

Humidity: 61%

Dew point: 50 °F

Location of Kawartha LakesLocation

Historic Weather in Kawartha Lakes — Graph

°F

Kawartha Lakes temperature yesterday

Maximum temperature yesterday: 75 °F (at 2:00 AM)
Minimum temperature yesterday: 61 °F (at 11:00 PM)
Average temperature yesterday: 67 °F

Past Weeks' High & Low Weather Summary

 TemperatureHumidityPressure
High79 °F (Jul 22, 7:00 PM)98% (Jul 20, 3:00 AM)30.24 "Hg (Jul 20, 3:00 AM)
Low52 °F (Jul 18, 5:00 AM)31% (Jul 18, 7:00 PM)29.63 "Hg (Jul 15, 1:00 PM)
Average66 °F71%30.00 "Hg
* Reported Jul 9 8:00 PM — Jul 24 8:00 PM, Kawartha Lakes, Weather by CustomWeather, © 2014

Note: Actual official high and low records may vary slightly from our data, if they occured in-between our weather recording intervals... More about our weather records

Advertising

Kawartha Lakes weather history for previous 24 hours

 ConditionsComfort  
Time TempWeatherWind HumidityBarometerVisibility
8:00 PM
Jul 24
66 °FMild.8 mph53%29.99 "HgN/A
7:00 PM67 °FMild.13 mph47%30.00 "HgN/A
6:00 PM68 °FMild.13 mph50%30.00 "HgN/A
5:00 PM69 °FMild.13 mph53%30.01 "HgN/A
4:00 PM69 °FMild.12 mph55%30.02 "HgN/A
3:00 PM69 °FMild.10 mph53%30.02 "HgN/A
2:00 PM68 °FMild.10 mph51%30.03 "HgN/A
1:00 PM67 °FMild.7 mph50%30.04 "HgN/A
12:00 PM65 °FMild.13 mph51%30.05 "HgN/A
11:00 AM65 °FMild.12 mph54%30.06 "HgN/A
10:00 AM63 °FMild.9 mph59%30.06 "HgN/A
9:00 AM61 °FCool.7 mph66%30.06 "HgN/A
8:00 AM57 °FCool.5 mph79%30.06 "HgN/A
7:00 AM53 °FCool.5 mph84%30.05 "HgN/A
6:00 AM52 °FCool.6 mph88%30.04 "HgN/A
5:00 AM53 °FCool.6 mph88%30.03 "HgN/A
4:00 AM54 °FCool.7 mph84%30.03 "HgN/A
3:00 AM55 °FCool.8 mph82%30.02 "HgN/A
2:00 AM57 °FCool.6 mph76%30.02 "HgN/A
1:00 AM57 °FCool.5 mph73%30.03 "HgN/A
12:00 AM59 °FCool.6 mph71%30.01 "HgN/A
11:00 PM
Jul 23
61 °FCool.9 mph65%30.01 "HgN/A
10:00 PM64 °FMild.8 mph65%29.99 "HgN/A
9:00 PM66 °FMild.6 mph62%29.98 "HgN/A
Weather by CustomWeather, © 2014

See weather overviewHow to use our weather pages